Regional Weather Roundup
Issued by NWS

Home | Current Version | Previous Version | Text Only | Print | Product List | Glossary Off
Versions: 1 2 3 4 5 6 7 8 9 10 11 12 13 14 15 16 17 18 19 20 21 22 23 24 25 26 27 28 29 30 31 32 33 34 35 36 37 38 39 40 41 42 43 44 45 46 47 48 49 50

000
ASUS44 KOUN 250610
RWROK

WEATHER ROUNDUP FOR OKLAHOMA
NATIONAL WEATHER SERVICE NORMAN OK
100 AM CDT SAT APR 25 2015

NOTE: "FAIR" INDICATES FEW OR NO CLOUDS BELOW 12,000 FEET WITH NO
      SIGNIFICANT WEATHER AND/OR OBSTRUCTIONS TO VISIBILITY.

OKZ001>007-009>012-014-015-017-250700-
NORTHWEST OKLAHOMA AND THE PANHANDLE

CITY           SKY/WX    TMP DP  RH WIND       PRES   REMARKS
GAGE           FAIR      56  49  77 SW5       29.58R
6HR MIN TEMP:  56; 6HR MAX TEMP:  77;

GUYMON         FAIR      52  44  74 W12       29.64R
ENID/WOODRING  FAIR      63  61  94 SW16G24   29.50R
$$

OKZ016-021>023-033>039-044-045-250700-
SOUTHWEST OKLAHOMA

CITY           SKY/WX    TMP DP  RH WIND       PRES   REMARKS
LAWTON/REGL    FAIR      60  58  92 S7        29.62F
6HR MIN TEMP:  60; 6HR MAX TEMP:  69;

LAWTON/FT SILL FAIR      61  61 100 SW6       29.61F
FREDERICK      FAIR      61  51  70 SW14      29.61F
CLINTON        FAIR      58  45  62 SW9       29.61R
HOBART         FAIR      62  42  47 SW17      29.59F
ALTUS AFB      FAIR      63  42  47 SW15      29.61S
$$

OKZ018>020-024>031-250700-
CENTRAL OKLAHOMA

CITY           SKY/WX    TMP DP  RH WIND       PRES   REMARKS
OKLAHOMA CITY  CLOUDY    63  59  87 S17G26    29.59F
6HR MIN TEMP:  62; 6HR MAX TEMP:  70;

OKC/WILEY POST MOCLDY    63  60  90 S21G30    29.57F
OKC/TINKER AFB CLOUDY    61  59  93 S22G29    29.58F
STILLWATER     CLOUDY    62  59  90 S14G22    29.54S
GUTHRIE        FAIR      63  59  87 S17G30    29.54F
$$

OKZ008-013-054>072-250700-
NORTHEAST OKLAHOMA

CITY           SKY/WX    TMP DP  RH WIND       PRES   REMARKS
TULSA          FAIR      62  59  90 S20G28    29.54F
6HR MIN TEMP:  62; 6HR MAX TEMP:  69;

TULSA/JONES    FAIR      61  58  90 S9        29.57F
PONCA CITY     CLOUDY    63  60  90 S12G24    29.48F
BARTLESVILLE   FAIR      61  58  90 S9        29.54F
MUSKOGEE       FAIR      60  59  96 S12       29.62S
$$

OKZ032-040>043-046>053-073>077-250700-
SOUTH CENTRAL/SOUTHEAST OKLAHOMA

CITY           SKY/WX    TMP DP  RH WIND       PRES   REMARKS
ARDMORE/DWNTWN CLOUDY    61  61 100 S5        29.66F
MCALESTER      CLOUDY    64  61  90 S13G21    29.65S
$$




USA.gov is the U.S. government's official web portal to all federal, state and local government web resources and services.